Abbeville, LA

11:23 AM CST on February 19, 2017 (GMT -0600)
Abbeville

Weather History for KIYA - April, 2013

Change the Weather History Date:

Sunday, April 7, 2013

  Actual Average (K7R4) Record (K7R4)
Temperature  
Mean Temperature 66 °F -  
Max Temperature 77 °F 71 °F 82 °F (2004)
Min Temperature 56 °F 63 °F 55 °F (2014)
Cooling Degree Days 2    
Growing Degree Days 16 (Base 50)    
Moisture  
Dew Point 63 °F    
Average Humidity 87    
Maximum Humidity 100    
Minimum Humidity 63    
Precipitation  
Precipitation 0.00 in - - ()
Sea Level Pressure  
Sea Level Pressure 30.01 in    
Wind  
Wind Speed 5 mph (SE)    
Max Wind Speed 15 mph    
Max Gust Speed 21 mph    
Visibility 9 miles    
Events      
Averages and records for this station are not official NWS values.
T = Trace of Precipitation, MM = Missing Value Source: NWS Daily Summary

Daily Weather History Graph

Daily Weather History Graph

Search for Another Location

Airport or City:

Trip Planner

Search our weather history database for the weather conditions in past years. The results will help you decide how hot, cold, wet, or windy it might be!

Date:

Astronomy

Apr. 07, 2013 Rise Set
Actual Time 6:50 AM CDT 7:30 PM CDT
Civil Twilight 6:26 AM CDT 7:55 PM CDT
Nautical Twilight 5:57 AM CDT 8:23 PM CDT
Astronomical Twilight 5:28 AM CDT 8:52 PM CDT
Moon 4:57 AM CDT (4/7) 5:12 PM CDT (4/7)
Length of Visible Light 13h 29m
Length of Day
12h 40m
Waning Crescent, 8% of the Moon is Illuminated
Apr 7
Waning Crescent
Apr 10
New
Apr 18
First Quarter
Apr 25
Full
May 2
Last Quarter

Hourly Weather History & Observations

Time (CDT) Temp. Dew Point Humidity Pressure Visibility Wind Dir Wind Speed Gust Speed Precip Events Conditions
12:15 AM 60.4 °F 60.3 °F 99% 30.05 in 10.0 mi ESE 4.6 mph - N/A   Clear
12:35 AM 60.4 °F 60.4 °F 100% 30.04 in 10.0 mi SE 3.5 mph - N/A   Mostly Cloudy
12:55 AM 60.1 °F 60.1 °F 100% 30.04 in 10.0 mi Calm Calm - N/A   Scattered Clouds
1:15 AM 59.5 °F 59.5 °F 100% 30.03 in 10.0 mi Calm Calm - N/A   Scattered Clouds
1:55 AM 58.5 °F 58.5 °F 100% 30.02 in 10.0 mi Calm Calm - N/A   Mostly Cloudy
2:15 AM 59.9 °F 59.9 °F 100% 30.02 in 10.0 mi East 3.5 mph - N/A   Mostly Cloudy
2:35 AM 58.3 °F 58.3 °F 100% 30.02 in 2.5 mi Calm Calm - N/A   Mostly Cloudy
2:55 AM 56.8 °F 56.8 °F 100% 30.02 in 0.8 mi Calm Calm - N/A   Overcast
3:15 AM 56.8 °F 56.8 °F 100% 30.02 in 4.0 mi Calm Calm - N/A   Overcast
3:35 AM 57.7 °F 57.7 °F 100% 30.02 in 5.0 mi Calm Calm - N/A   Overcast
3:55 AM 58.6 °F 58.6 °F 100% 30.01 in 7.0 mi Calm Calm - N/A   Overcast
4:15 AM 59.0 °F 59.0 °F 100% 30.01 in 7.0 mi Calm Calm - N/A   Mostly Cloudy
4:35 AM 59.5 °F 59.5 °F 100% 30.01 in 10.0 mi Calm Calm - N/A   Overcast
4:55 AM 59.4 °F 59.4 °F 100% 30.01 in 7.0 mi Calm Calm - N/A   Overcast
5:15 AM 59.2 °F 59.2 °F 100% 30.01 in 10.0 mi Calm Calm - N/A   Overcast
5:35 AM 60.3 °F 60.3 °F 100% 30.01 in 10.0 mi Calm Calm - N/A   Overcast
5:55 AM 60.8 °F 60.8 °F 100% 30.02 in 10.0 mi Calm Calm - N/A   Overcast
6:15 AM 61.0 °F 61.0 °F 100% 30.02 in 10.0 mi East 3.5 mph - N/A   Overcast
6:55 AM 59.7 °F 59.7 °F 100% 30.03 in 7.0 mi Calm Calm - N/A   Mostly Cloudy
7:15 AM 60.6 °F 60.6 °F 100% 30.04 in 10.0 mi East 3.5 mph - N/A   Scattered Clouds
7:35 AM 61.7 °F 61.7 °F 100% 30.04 in 10.0 mi East 5.8 mph - N/A   Clear
7:55 AM 62.8 °F 62.8 °F 100% 30.05 in 10.0 mi East 5.8 mph - N/A   Clear
8:15 AM 63.9 °F 63.9 °F 100% 30.05 in 10.0 mi ESE 4.6 mph - N/A   Clear
8:35 AM 65.8 °F 65.3 °F 98% 30.05 in 10.0 mi ESE 6.9 mph - N/A   Clear
8:55 AM 67.1 °F 65.7 °F 95% 30.05 in 10.0 mi ESE 4.6 mph - N/A   Clear
9:15 AM 69.4 °F 66.4 °F 90% 30.06 in 10.0 mi SE 6.9 mph - N/A   Clear
9:35 AM 70.9 °F 65.8 °F 84% 30.06 in 10.0 mi ESE 5.8 mph - N/A   Scattered Clouds
9:55 AM 71.8 °F 66.2 °F 83% 30.06 in 10.0 mi ESE 4.6 mph - N/A   Scattered Clouds
10:15 AM 72.5 °F 64.0 °F 75% 30.07 in 10.0 mi SSE 8.1 mph 16.1 mph N/A   Mostly Cloudy
10:55 AM 74.7 °F 64.8 °F 71% 30.08 in 10.0 mi SE 10.4 mph - N/A   Overcast
11:15 AM 73.9 °F 64.2 °F 72% 30.08 in 10.0 mi South 10.4 mph - N/A   Overcast
11:35 AM 75.6 °F 63.9 °F 67% 30.07 in 10.0 mi SSE 12.7 mph 18.4 mph N/A   Overcast
11:55 AM 75.6 °F 64.9 °F 69% 30.07 in 10.0 mi SSE 15.0 mph - N/A   Overcast
12:15 PM 75.4 °F 64.4 °F 69% 30.06 in 10.0 mi South 12.7 mph - N/A   Mostly Cloudy
12:35 PM 76.5 °F 63.0 °F 63% 30.06 in 10.0 mi South 11.5 mph - N/A   Mostly Cloudy
12:55 PM 75.6 °F 64.9 °F 69% 30.05 in 10.0 mi SE 12.7 mph 19.6 mph N/A   Mostly Cloudy
1:15 PM 77.2 °F 64.8 °F 65% 30.05 in 10.0 mi SE 12.7 mph 19.6 mph N/A   Mostly Cloudy
1:35 PM 76.5 °F 64.4 °F 66% 30.04 in 10.0 mi SE 13.8 mph 19.6 mph N/A   Mostly Cloudy
1:55 PM 77.0 °F 65.8 °F 68% 30.03 in 10.0 mi SE 13.8 mph 18.4 mph N/A   Mostly Cloudy
2:15 PM 75.7 °F 65.1 °F 69% 30.03 in 10.0 mi SE 15.0 mph 18.4 mph N/A   Overcast
2:55 PM 75.4 °F 64.4 °F 69% 30.01 in 10.0 mi SE 15.0 mph 20.7 mph N/A   Overcast
3:15 PM 75.6 °F 63.5 °F 66% 30.01 in 10.0 mi SE 15.0 mph 19.6 mph N/A   Overcast
3:35 PM 74.8 °F 63.9 °F 69% 30.00 in 10.0 mi SE 11.5 mph - N/A   Overcast
3:55 PM 75.0 °F 63.5 °F 67% 29.99 in 10.0 mi SE 10.4 mph - N/A   Mostly Cloudy
4:15 PM 75.0 °F 63.7 °F 68% 29.99 in 10.0 mi SE 12.7 mph 17.3 mph N/A   Mostly Cloudy
4:35 PM 74.3 °F 63.7 °F 69% 29.98 in 10.0 mi SE 10.4 mph 18.4 mph N/A   Scattered Clouds
4:55 PM 74.7 °F 63.7 °F 69% 29.98 in 10.0 mi SE 12.7 mph 17.3 mph N/A   Scattered Clouds
5:15 PM 74.7 °F 64.2 °F 70% 29.98 in 10.0 mi SSE 12.7 mph 19.6 mph N/A   Scattered Clouds
5:55 PM 74.3 °F 63.7 °F 69% 29.96 in 10.0 mi SE 12.7 mph 18.4 mph N/A   Clear
6:15 PM 73.6 °F 63.9 °F 72% 29.97 in 10.0 mi SE 9.2 mph - N/A   Clear
6:35 PM 72.7 °F 63.9 °F 74% 29.97 in 10.0 mi SE 10.4 mph - N/A   Clear
6:55 PM 71.8 °F 63.9 °F 76% 29.96 in 10.0 mi SE 10.4 mph 18.4 mph N/A   Clear
7:15 PM 70.7 °F 64.6 °F 81% 29.96 in 10.0 mi SE 10.4 mph - N/A   Clear
7:35 PM 69.4 °F 64.9 °F 86% 29.95 in 10.0 mi SE 9.2 mph - N/A   Clear
7:55 PM 69.1 °F 65.5 °F 88% 29.97 in 10.0 mi SE 6.9 mph - N/A   Clear
8:15 PM 68.7 °F 65.3 °F 89% 29.97 in 10.0 mi SE 9.2 mph - N/A   Clear
8:35 PM 69.1 °F 65.7 °F 89% 29.97 in 10.0 mi SE 9.2 mph - N/A   Mostly Cloudy
8:55 PM 69.1 °F 66.2 °F 91% 29.98 in 10.0 mi SE 8.1 mph - N/A   Overcast
9:15 PM 69.3 °F 66.6 °F 91% 29.98 in 10.0 mi SE 11.5 mph 18.4 mph N/A   Overcast
9:35 PM 68.9 °F 66.6 °F 92% 29.98 in 10.0 mi SE 9.2 mph - N/A   Scattered Clouds
9:55 PM 68.2 °F 67.3 °F 97% 29.98 in 10.0 mi SE 9.2 mph - N/A   Clear
10:15 PM 68.0 °F 67.5 °F 98% 29.98 in 10.0 mi SE 10.4 mph - N/A   Clear
10:55 PM 68.0 °F 67.8 °F 99% 29.97 in 10.0 mi SE 10.4 mph - N/A   Clear
11:15 PM 68.0 °F 68.0 °F 100% 29.97 in 10.0 mi SE 10.4 mph 16.1 mph N/A   Clear
11:35 PM 68.0 °F 68.0 °F 100% 29.96 in 10.0 mi SE 10.4 mph 16.1 mph N/A   Clear
11:55 PM 67.5 °F 67.5 °F 100% 29.96 in 10.0 mi SSE 8.1 mph - N/A   Clear